Location: Grange Verzio
(44.5000°N, 6.9833°E)
Time: 17:52:28
(UTC+00:00)

Cosmos 2219 Rocket - Pass Details

Date: 30 September 2023
Orbit: 826 x 848 km, 71.0° (Epoch: 08 December)

Event Time Altitude Azimuth Distance (km) Brightness Sun altitude
Rises 02:12:14 0° 340° (NNW) 3,395 5.5 -33.9°
Reaches altitude 10° 02:14:57 10° 351° (N) 2,461 4.9 -33.5°
Maximum altitude 02:19:59 32° 54° (NE) 1,408 3.8 -32.8°
Drops below altitude 10° 02:25:01 10° 117° (ESE) 2,461 4.9 -32.0°
Sets 02:27:43 0° 127° (SE) 3,395 5.6 -31.6°
